Погода в Ротереме

Великобритания     53°25′49″N   1°21′16″W
В апреле 2022 года жителям России запретили посещать сайт meteo.paraplan.net по решению Генеральной прокуратуры. Аудитория сайта уменьшилась в 10 раз. Владельцы сайта не видят смысла в поддержке погодного сервера в таких условиях. Сайт будет закрыт в октябре.
темп.,
°C
ветер,
м/с
пор.,
м/с
влажн.,
%
обл.,
%
осадки,
мм/ч
давл.,
гПа
погр.,
м
4 октября, вт
вт401:00+14ююз4128177 0.0 1017583
04:00+13ююз5138473 0.0 1014513
07:00+13ююз51388100 0.0 1013601
10:00+16ююз61472100 0.0 1012763
13:00+18юз7146599 0.0 10111034
16:00+18ююз61367100 0.0 10101206
19:00+17ююз61480100 0.3 1009912
22:00+16ююз61383100 0.1 1008921
5 октября, ср
ср501:00+16ююз61484100 0.2 10061033
04:00+16ююз81884100 0.0 10021265
07:00+17ююз102180100 0.0 9991512
10:00+16зюз81685100 1.1 10001585
13:00+13з6107765 1.9 10041024
16:00+15зюз6125881 0.0 10071520
19:00+12зюз5116997 0.3 10111103
22:00+11зюз5127159 0.0 10141081
6 октября, чт
чт601:00+11з6137217 0.0 10181192
04:00+11з6127162 0.0 10211059
07:00+10юз512733 0.0 1023814
10:00+13юз613605 0.0 1024894
13:00+16юз6136296 0.0 10241402
16:00+16юз6126757 0.0 10231265
19:00+15юз6137394 0.0 10231136
22:00+14юз7147556 0.0 1022979
7 октября, пт
пт701:00+13юз715765 0.0 1020943
04:00+13юз7157783 0.0 1018993
07:00+14юз71572100 0.0 10161130
10:00+15юз81667100 0.0 10151222
13:00+14зюз71476100 0.6 10141613
16:00+15з613600 0.4 10141498
19:00+13з4116595 0.4 10151150
22:00+12зюз4106947 0.0 1017953
8 октября, сб
сб801:00+11з4106999 0.0 1017910
04:00+11зюз41072100 0.0 1017844
07:00+10зюз41077100 0.0 1018635
10:00+12зюз486912 0.0 1019843
13:00+15з475452 0.0 10191388
16:00+16зюз464847 0.0 10181586
19:00+14ююз25615 0.0 1018221
22:00+12ююз266698 0.0 1018203